Regional Weather Roundup
Issued by NWS

Home | Current Version | Previous Version | Graphics & Text | Print | Product List | Glossary On
Versions: 1 2 3 4 5 6 7 8 9 10 11 12 13 14 15 16 17 18 19 20 21 22 23 24 25 26 27 28 29 30 31 32 33 34 35 36 37 38 39 40 41 42 43 44 45 46 47 48 49 50
000
ASUS43 KLOT 272000
RWRIL

ILLINOIS REGIONAL WEATHER ROUNDUP
NATIONAL WEATHER SERVICE CHICAGO/ROMEOVILLE IL
300 PM CDT THU AUG 27 2015

NOTE: "FAIR" INDICATES FEW OR NO CLOUDS BELOW 12,000 FEET WITH NO
SIGNIFICANT WEATHER AND/OR OBSTRUCTIONS TO VISIBILITY.

* THESE STATIONS ARE NOT UNDER NWS QUALITY CONTROL. THEY ALSO MAY NOT
  REPORT WEATHER SUCH AS PRECIPITATION OR FOG.

ILZ001-002-007-009-015-016-024-272100-
NORTHWEST ILLINOIS

CITY           SKY/WX    TMP DP  RH WIND       PRES   REMARKS
MOLINE         CLOUDY    74  59  59 S5        30.14F
STERLING*      PTSUNNY  N/A N/A N/A W5        30.13F
$$

ILZ003-004-008-010-011-017-018-272100-
NORTH CENTRAL ILLINOIS

CITY           SKY/WX    TMP DP  RH WIND       PRES   REMARKS
ROCKFORD       PTSUNNY   72  55  55 VRB5      30.16F
FREEPORT*      PTSUNNY   71  56  60 S5        30.16F
$$

ILZ005-006-012>014-019>023-272100-
NORTHEAST ILLINOIS

CITY           SKY/WX    TMP DP  RH WIND       PRES   REMARKS
CHICAGO-OHARE  MOSUNNY   74  52  46 E6        30.14F
CHICAGO-MIDWAY MOSUNNY   75  54  47 E5        30.15F
AURORA         MOSUNNY   73  57  57 VRB3      30.17F
LANSING*       PTSUNNY   69  54  58 CALM      30.16F
WAUKEGAN       SUNNY     69  54  58 SE10      30.16F
DUPAGE AIRPORT SUNNY     73  53  49 W5        30.16F
WHEELING       MOSUNNY   73  53  49 E7        30.16F
NORTHERLY ISL    N/A     67  55  65 E7          N/A
$$

LMZ740>746-272100-
SOUTHERN LAKE MICHIGAN

STATION/POSITION SKY/WX   TEMP    WIND        PRES    VSBY  WAVE
                          AIR SEA DIR/SP/G                  HT/PER
                          (F)     (DEG/KT/KT) (MB)    (MI)  (FT/S)
SOUTHERN BUOY              65 67  200/  8/  8 1021.7F         1
HARRISON CRIB              65      50/  5/  5   N/A
BURNHAM HARBOR             67      40/  6/  7   N/A
CALUMET HARBOR             66      50/  6/  8   N/A
BURNS HARBOR               66      10/  4/  5 1022.7F
MICHIGAN CITY              68     330/  5/  6   N/A
MICHIGAN CITY 6N           67 71   10/  2/  4   N/A           1
ST. JOSEPH                 67 71  320/  4/  6   N/A           1
$$

ILZ025>027-034>036-040-047-049-050-058-095>099-272100-
WEST-CENTRAL ILLINOIS

CITY           SKY/WX    TMP DP  RH WIND       PRES   REMARKS
QUINCY         CLOUDY    76  57  51 VRB3      30.13F
MACOMB*        CLOUDY    73  58  58 CALM      30.18F
$$

ILZ028>032-037-038-041>044-048-051>054-059>061-272100-
CENTRAL ILLINOIS

CITY           SKY/WX    TMP DP  RH WIND       PRES   REMARKS
DECATUR        SUNNY     78  57  48 SW5       30.14F
PEORIA         CLOUDY    77  56  48 SW6       30.16S
SPRINGFIELD    PTSUNNY   78  58  49 N6        30.14F
TAYLORVILLE    NOT AVBL
$$

ILZ033-039-045-046-055>057-062-063-272100-
EAST-CENTRAL ILLINOIS

CITY           SKY/WX    TMP DP  RH WIND       PRES   REMARKS
CHAMPAIGN      SUNNY     76  58  53 CALM      30.15F
MATTOON        MOSUNNY   80  55  42 VRB3      30.12F HX  80
$$

ILZ079-100>102-272100-
SOUTHWEST ILLINOIS

CITY           SKY/WX    TMP DP  RH WIND       PRES   REMARKS
CAHOKIA*       SUNNY     79  53  40 N5        30.12F
SPARTA*        SUNNY     75  57  53 CALM      30.14S
$$

ILZ064>066-069>071-074>076-080>082-084>086-088>090-092>094-272100-
SOUTH-CENTRAL ILLINOIS

CITY           SKY/WX    TMP DP  RH WIND       PRES   REMARKS
CARBONDALE     MOSUNNY   80  56  43 VRB3      30.12F HX  80
MARION         PTSUNNY   79  57  47 W7        30.13F HX  80
MT. VERNON     SUNNY     81  55  41 CALM      30.14F HX  80
SALEM*         SUNNY     77  58  50 W6        30.14F
$$

ILZ067-068-072-073-078-083-087-091-272100-
SOUTHEAST ILLINOIS

CITY           SKY/WX    TMP DP  RH WIND       PRES   REMARKS
LAWRENCEVILLE  MOSUNNY   82  58  43 VRB5      30.13F HX  82
FLORA*         MOSUNNY   80  55  41 SW5       30.13F HX  80
ROBINSON*      SUNNY     81  57  44 S6        30.14F HX  81
$$

ABBREVIATIONS USED IN REMARKS
   TC - TEMPERATURE IN CELSIUS
  WCI - WIND CHILL INDEX
   HX - HEAT INDEX
  VSB - VISIBILITY
$$




USA.gov is the U.S. government's official web portal to all federal, state and local government web resources and services.